| time (UTC) | temp F | wind direction | speed MPH | gust MPH | rain 1hr in | rain 24hr in | rain mn in | humidity % | barometer mb |
| 20260906211002 | 69 | 68 | 2.0 | 3.0 | 0.00 | 0.03 | 0.03 | 65 | 1018.5 |
| 20260906210502 | 69 | 77 | 1.0 | 3.0 | 0.00 | 0.03 | 0.03 | 63 | 1018.6 |
| 20260906210003 | 69 | 77 | 0.0 | 3.0 | 0.00 | 0.03 | 0.03 | 63 | 1018.5 |
| 20260906205502 | 68 | 106 | 0.0 | 1.0 | 0.00 | 0.03 | 0.03 | 62 | 1018.4 |
| 20260906205002 | 68 | 0 | 0.0 | 0.0 | 0.00 | 0.03 | 0.03 | 60 | 1018.3 |
| 20260906204503 | 68 | 0 | 0.0 | 0.0 | 0.00 | 0.03 | 0.03 | 62 | 1018.5 |
| 20260906204002 | 68 | 106 | 0.0 | 2.0 | 0.00 | 0.03 | 0.03 | 61 | 1018.8 |
| 20260906203502 | 68 | 147 | 0.0 | 2.0 | 0.00 | 0.03 | 0.03 | 61 | 1018.8 |
| 20260906203003 | 68 | 127 | 0.0 | 3.0 | 0.00 | 0.03 | 0.03 | 60 | 1018.9 |
| 20260906202502 | 68 | 85 | 1.0 | 2.0 | 0.00 | 0.03 | 0.03 | 60 | 1018.9 |
| 20260906202002 | 67 | 77 | 1.0 | 2.0 | 0.00 | 0.03 | 0.03 | 60 | 1018.9 |
| 20260906201503 | 67 | 71 | 1.0 | 2.0 | 0.00 | 0.03 | 0.03 | 59 | 1018.7 |
| 20260906201002 | 67 | 145 | 1.0 | 1.0 | 0.00 | 0.03 | 0.03 | 59 | 1018.7 |
| 20260906200502 | 67 | 143 | 0.0 | 3.0 | 0.00 | 0.03 | 0.03 | 61 | 1018.8 |
| 20260906200003 | 66 | 88 | 1.0 | 1.0 | 0.00 | 0.03 | 0.03 | 63 | 1019.0 |
| 20260906195502 | 66 | 0 | 1.0 | 0.0 | 0.00 | 0.03 | 0.03 | 63 | 1019.3 |
| 20260906195002 | 66 | 77 | 1.0 | 3.0 | 0.01 | 0.03 | 0.03 | 65 | 1019.5 |
| 20260906194503 | 66 | 69 | 2.0 | 2.0 | 0.01 | 0.03 | 0.03 | 65 | 1019.3 |
| 20260906194002 | 66 | 54 | 2.0 | 5.0 | 0.01 | 0.03 | 0.03 | 65 | 1019.6 |
| 20260906193003 | 65 | 82 | 1.0 | 2.0 | 0.03 | 0.03 | 0.03 | 62 | 1019.6 |
| 20260906192502 | 65 | 109 | 1.0 | 3.0 | 0.03 | 0.03 | 0.03 | 65 | 1019.7 |
| 20260906192002 | 65 | 86 | 1.0 | 4.0 | 0.03 | 0.03 | 0.03 | 66 | 1019.8 |
| 20260906191503 | 66 | 14 | 1.0 | 3.0 | 0.03 | 0.03 | 0.03 | 66 | 1019.9 |
| 20260906191002 | 66 | 85 | 1.0 | 2.0 | 0.03 | 0.03 | 0.03 | 71 | 1020.0 |
| 20260906190502 | 66 | 27 | 3.0 | 2.0 | 0.03 | 0.03 | 0.03 | 68 | 1019.7 |
| 20260906190003 | 66 | 24 | 4.0 | 8.0 | 0.03 | 0.03 | 0.03 | 64 | 1019.7 |
| 20260906185503 | 67 | 27 | 2.0 | 7.0 | 0.03 | 0.03 | 0.03 | 64 | 1019.9 |
| 20260906185002 | 68 | 23 | 1.0 | 4.0 | 0.02 | 0.02 | 0.02 | 62 | 1020.1 |
| 20260906184503 | 68 | 29 | 2.0 | 1.0 | 0.02 | 0.02 | 0.02 | 60 | 1020.2 |
| 20260906184002 | 68 | 26 | 2.0 | 3.0 | 0.02 | 0.02 | 0.02 | 57 | 1020.2 |
| 20260906182503 | 68 | 0 | 0.0 | 0.0 | 0.00 | 0.00 | 0.00 | 40 | 1019.9 |
| 20260906182002 | 68 | 25 | 0.0 | 1.0 | 0.00 | 0.00 | 0.00 | 41 | 1019.7 |
| 20260906181502 | 68 | 56 | 0.0 | 2.0 | 0.00 | 0.00 | 0.00 | 49 | 1019.9 |
| 20260906181002 | 68 | 0 | 0.0 | 0.0 | 0.00 | 0.00 | 0.00 | 46 | 1019.9 |
| 20260906180503 | 68 | 0 | 0.0 | 0.0 | 0.00 | 0.00 | 0.00 | 45 | 1020.0 |
| 20260906180002 | 68 | 57 | 0.0 | 1.0 | 0.00 | 0.00 | 0.00 | 44 | 1020.1 |
| 20260906175503 | 68 | 355 | 0.0 | 1.0 | 0.00 | 0.00 | 0.00 | 45 | 1020.0 |
| 20260906175002 | 68 | 0 | 0.0 | 0.0 | 0.00 | 0.00 | 0.00 | 49 | 1019.7 |
| 20260906174502 | 67 | 0 | 0.0 | 0.0 | 0.00 | 0.00 | 0.00 | 50 | 1019.6 |
| 20260906174003 | 67 | 0 | 0.0 | 0.0 | 0.00 | 0.00 | 0.00 | 51 | 1019.6 |
| 20260906173503 | 67 | 0 | 0.0 | 0.0 | 0.00 | 0.00 | 0.00 | 51 | 1019.7 |
| 20260906173003 | 67 | 0 | 0.0 | 0.0 | 0.00 | 0.00 | 0.00 | 51 | 1019.6 |
| 20260906172502 | 67 | 0 | 0.0 | 0.0 | 0.00 | 0.00 | 0.00 | 51 | 1019.6 |
| 20260906172003 | 67 | 355 | 0.0 | 1.0 | 0.00 | 0.00 | 0.00 | 50 | 1019.7 |
| 20260906171502 | 67 | 1 | 0.0 | 1.0 | 0.00 | 0.00 | 0.00 | 51 | 1019.7 |
| 20260906171003 | 67 | 0 | 0.0 | 0.0 | 0.00 | 0.00 | 0.00 | 51 | 1019.6 |
| 20260906170503 | 66 | 0 | 0.0 | 0.0 | 0.00 | 0.00 | 0.00 | 52 | 1019.6 |
| 20260906170002 | 66 | 1 | 0.0 | 2.0 | 0.00 | 0.00 | 0.00 | 52 | 1019.3 |
| 20260906165503 | 66 | 351 | 1.0 | 2.0 | 0.00 | 0.00 | 0.00 | 53 | 1019.3 |
| 20260906165002 | 65 | 339 | 1.0 | 1.0 | 0.00 | 0.00 | 0.00 | 53 | 1019.1 |
| 20260906164003 | 64 | 0 | 0.0 | 0.0 | 0.00 | 0.00 | 0.00 | 54 | 1019.0 |
| 20260906163502 | 64 | 0 | 0.0 | 0.0 | 0.00 | 0.00 | 0.00 | 55 | 1018.8 |
| 20260906163003 | 64 | 0 | 0.0 | 0.0 | 0.00 | 0.00 | 0.00 | 56 | 1018.9 |
| 20260906162502 | 64 | 0 | 0.0 | 0.0 | 0.00 | 0.00 | 0.00 | 56 | 1018.8 |
| 20260906161503 | 63 | 0 | 0.0 | 0.0 | 0.00 | 0.00 | 0.00 | 57 | 1018.8 |
| 20260906161002 | 62 | 317 | 0.0 | 1.0 | 0.00 | 0.00 | 0.00 | 57 | 1018.8 |
| 20260906160503 | 62 | 336 | 0.0 | 1.0 | 0.00 | 0.00 | 0.00 | 59 | 1018.9 |
| 20260906155502 | 60 | 28 | 0.0 | 1.0 | 0.00 | 0.00 | 0.00 | 62 | 1019.0 |
| 20260906155002 | 60 | 0 | 0.0 | 0.0 | 0.00 | 0.00 | 0.00 | 63 | 1019.0 |
| 20260906154503 | 60 | 0 | 0.0 | 0.0 | 0.00 | 0.00 | 0.00 | 63 | 1019.0 |
| 20260906154003 | 59 | 0 | 0.0 | 0.0 | 0.00 | 0.00 | 0.00 | 64 | 1018.8 |
| 20260906153502 | 59 | 0 | 0.0 | 0.0 | 0.00 | 0.00 | 0.00 | 65 | 1018.8 |
| 20260906153002 | 58 | 0 | 0.0 | 0.0 | 0.00 | 0.00 | 0.00 | 66 | 1018.9 |
| 20260906152503 | 58 | 0 | 0.0 | 0.0 | 0.00 | 0.00 | 0.00 | 66 | 1018.8 |
| 20260906152002 | 58 | 0 | 0.0 | 0.0 | 0.00 | 0.00 | 0.00 | 67 | 1018.9 |
| 20260906151503 | 57 | 0 | 0.0 | 0.0 | 0.00 | 0.00 | 0.00 | 67 | 1018.8 |
| 20260906151003 | 57 | 0 | 0.0 | 0.0 | 0.00 | 0.00 | 0.00 | 67 | 1018.8 |
| 20260906150503 | 56 | 40 | 0.0 | 1.0 | 0.00 | 0.00 | 0.00 | 68 | 1018.7 |
| 20260906150002 | 56 | 45 | 0.0 | 1.0 | 0.00 | 0.00 | 0.00 | 69 | 1018.7 |
| 20260906145503 | 55 | 0 | 0.0 | 0.0 | 0.00 | 0.00 | 0.00 | 70 | 1018.7 |
| 20260906145003 | 55 | 0 | 0.0 | 0.0 | 0.00 | 0.00 | 0.00 | 70 | 1018.9 |
| 20260906144502 | 55 | 0 | 0.0 | 0.0 | 0.00 | 0.00 | 0.00 | 70 | 1019.0 |
| 20260906144003 | 54 | 57 | 0.0 | 1.0 | 0.00 | 0.00 | 0.00 | 71 | 1019.1 |
| 20260906143502 | 54 | 0 | 0.0 | 0.0 | 0.00 | 0.00 | 0.00 | 71 | 1019.0 |
| 20260906143003 | 54 | 0 | 0.0 | 0.0 | 0.00 | 0.00 | 0.00 | 71 | 1019.0 |
| 20260906142503 | 54 | 0 | 0.0 | 0.0 | 0.00 | 0.00 | 0.00 | 71 | 1019.0 |
| 20260906142002 | 54 | 0 | 0.0 | 0.0 | 0.00 | 0.00 | 0.00 | 70 | 1018.8 |
| 20260906141502 | 54 | 0 | 0.0 | 0.0 | 0.00 | 0.00 | 0.00 | 71 | 1018.8 |
| 20260906141003 | 54 | 59 | 0.0 | 1.0 | 0.00 | 0.00 | 0.00 | 71 | 1018.7 |
| 20260906140503 | 54 | 60 | 0.0 | 1.0 | 0.00 | 0.00 | 0.00 | 71 | 1018.6 |
| 20260906140002 | 54 | 0 | 0.0 | 0.0 | 0.00 | 0.00 | 0.00 | 71 | 1018.4 |
| 20260906135503 | 54 | 0 | 0.0 | 0.0 | 0.00 | 0.00 | 0.00 | 70 | 1018.4 |
| 20260906134502 | 54 | 0 | 0.0 | 0.0 | 0.00 | 0.00 | 0.00 | 69 | 1018.5 |
| 20260906133503 | 54 | 0 | 0.0 | 0.0 | 0.00 | 0.00 | 0.00 | 69 | 1018.3 |
| 20260906133003 | 54 | 0 | 1.0 | 0.0 | 0.00 | 0.00 | 0.00 | 69 | 1018.2 |
| 20260906132503 | 54 | 61 | 1.0 | 2.0 | 0.00 | 0.00 | 0.00 | 69 | 1018.1 |
| 20260906132002 | 54 | 64 | 0.0 | 2.0 | 0.00 | 0.00 | 0.00 | 70 | 1018.2 |
| 20260906131503 | 54 | 69 | 0.0 | 1.0 | 0.00 | 0.00 | 0.00 | 69 | 1018.1 |
| 20260906130502 | 54 | 69 | 0.0 | 1.0 | 0.00 | 0.00 | 0.00 | 69 | 1018.2 |
| 20260906130003 | 54 | 0 | 0.0 | 0.0 | 0.00 | 0.00 | 0.00 | 69 | 1018.2 |
| 20260906125503 | 54 | 0 | 0.0 | 0.0 | 0.00 | 0.00 | 0.00 | 68 | 1018.0 |
| 20260906125002 | 54 | 0 | 0.0 | 0.0 | 0.00 | 0.00 | 0.00 | 68 | 1017.9 |
| 20260906124003 | 55 | 68 | 0.0 | 1.0 | 0.00 | 0.00 | 0.00 | 68 | 1018.0 |
| 20260906123502 | 55 | 71 | 0.0 | 1.0 | 0.00 | 0.00 | 0.00 | 68 | 1018.0 |
| 20260906123002 | 55 | 0 | 0.0 | 0.0 | 0.00 | 0.00 | 0.00 | 67 | 1017.9 |
| 20260906122503 | 55 | 0 | 0.0 | 0.0 | 0.00 | 0.00 | 0.00 | 67 | 1017.9 |
| 20260906122002 | 55 | 0 | 0.0 | 0.0 | 0.00 | 0.00 | 0.00 | 67 | 1018.0 |
| 20260906121502 | 55 | 0 | 0.0 | 0.0 | 0.00 | 0.00 | 0.00 | 67 | 1018.0 |
| 20260906121002 | 55 | 0 | 0.0 | 0.0 | 0.00 | 0.00 | 0.00 | 67 | 1018.0 |
| 20260906120503 | 55 | 74 | 0.0 | 1.0 | 0.00 | 0.00 | 0.00 | 68 | 1018.1 |
| 20260906115502 | 55 | 0 | 0.0 | 0.0 | 0.00 | 0.00 | 0.00 | 67 | 1018.2 |
| 20260906115003 | 55 | 0 | 0.0 | 0.0 | 0.00 | 0.00 | 0.00 | 66 | 1018.1 |
| 20260906114502 | 55 | 0 | 0.0 | 0.0 | 0.00 | 0.00 | 0.00 | 66 | 1018.1 |
| 20260906113503 | 56 | 0 | 0.0 | 0.0 | 0.00 | 0.00 | 0.00 | 66 | 1018.2 |
| 20260906113003 | 56 | 0 | 0.0 | 0.0 | 0.00 | 0.00 | 0.00 | 66 | 1018.2 |
| 20260906112002 | 56 | 0 | 0.0 | 0.0 | 0.00 | 0.00 | 0.00 | 66 | 1018.1 |
| 20260906111503 | 56 | 0 | 0.0 | 0.0 | 0.00 | 0.00 | 0.00 | 66 | 1018.1 |
| 20260906110502 | 56 | 0 | 0.0 | 0.0 | 0.00 | 0.00 | 0.00 | 65 | 1018.2 |
| 20260906110003 | 56 | 0 | 0.0 | 0.0 | 0.00 | 0.00 | 0.00 | 65 | 1018.2 |
| 20260906105502 | 56 | 0 | 0.0 | 0.0 | 0.00 | 0.00 | 0.00 | 66 | 1018.2 |
| 20260906104503 | 56 | 0 | 0.0 | 0.0 | 0.00 | 0.00 | 0.00 | 66 | 1018.3 |
| 20260906104003 | 56 | 0 | 0.0 | 0.0 | 0.00 | 0.00 | 0.00 | 66 | 1018.2 |
| 20260906103502 | 56 | 0 | 0.0 | 0.0 | 0.00 | 0.00 | 0.00 | 66 | 1018.3 |
| 20260906103003 | 56 | 78 | 0.0 | 1.0 | 0.00 | 0.00 | 0.00 | 66 | 1018.3 |
| 20260906102002 | 56 | 77 | 0.0 | 1.0 | 0.00 | 0.00 | 0.00 | 66 | 1018.3 |
| 20260906101503 | 56 | 77 | 0.0 | 1.0 | 0.00 | 0.00 | 0.00 | 67 | 1018.4 |
| 20260906101003 | 56 | 0 | 0.0 | 0.0 | 0.00 | 0.00 | 0.00 | 66 | 1018.4 |
| 20260906100502 | 56 | 0 | 0.0 | 0.0 | 0.00 | 0.00 | 0.00 | 66 | 1018.3 |
| 20260906100003 | 56 | 0 | 0.0 | 0.0 | 0.00 | 0.00 | 0.00 | 66 | 1018.4 |
| 20260906095503 | 56 | 0 | 0.0 | 0.0 | 0.00 | 0.00 | 0.00 | 66 | 1018.4 |
| 20260906095002 | 56 | 0 | 0.0 | 0.0 | 0.00 | 0.00 | 0.00 | 67 | 1018.4 |
| 20260906094504 | 55 | 0 | 0.0 | 0.0 | 0.00 | 0.00 | 0.00 | 67 | 1018.3 |
| 20260906094003 | 55 | 0 | 0.0 | 0.0 | 0.00 | 0.00 | 0.00 | 67 | 1018.3 |
| 20260906093503 | 55 | 0 | 0.0 | 0.0 | 0.00 | 0.00 | 0.00 | 67 | 1018.3 |
| 20260906093003 | 55 | 77 | 0.0 | 1.0 | 0.00 | 0.00 | 0.00 | 67 | 1018.3 |
| 20260906092003 | 55 | 0 | 0.0 | 0.0 | 0.00 | 0.00 | 0.00 | 66 | 1018.3 |
| 20260906091502 | 55 | 0 | 0.0 | 0.0 | 0.00 | 0.00 | 0.00 | 66 | 1018.4 |
| 20260906090503 | 55 | 0 | 0.0 | 0.0 | 0.00 | 0.00 | 0.00 | 66 | 1018.3 |
| 20260906085503 | 56 | 0 | 0.0 | 0.0 | 0.00 | 0.00 | 0.00 | 65 | 1018.4 |
| 20260906085003 | 56 | 0 | 0.0 | 0.0 | 0.00 | 0.00 | 0.00 | 65 | 1018.4 |
| 20260906084503 | 56 | 0 | 0.0 | 0.0 | 0.00 | 0.00 | 0.00 | 64 | 1018.3 |
| 20260906084003 | 56 | 0 | 0.0 | 0.0 | 0.00 | 0.00 | 0.00 | 64 | 1018.3 |
| 20260906083503 | 56 | 0 | 0.0 | 0.0 | 0.00 | 0.00 | 0.00 | 64 | 1018.2 |
| 20260906083002 | 56 | 0 | 0.0 | 0.0 | 0.00 | 0.00 | 0.00 | 64 | 1018.3 |
| 20260906082503 | 56 | 0 | 0.0 | 0.0 | 0.00 | 0.00 | 0.00 | 64 | 1018.2 |
| 20260906082003 | 56 | 0 | 0.0 | 0.0 | 0.00 | 0.00 | 0.00 | 64 | 1018.2 |
| 20260906081502 | 56 | 0 | 0.0 | 0.0 | 0.00 | 0.00 | 0.00 | 63 | 1018.3 |
| 20260906080003 | 57 | 0 | 0.0 | 0.0 | 0.00 | 0.00 | 0.00 | 63 | 1018.3 |
| 20260906075503 | 57 | 0 | 0.0 | 0.0 | 0.00 | 0.00 | 0.00 | 63 | 1018.3 |
| 20260906075003 | 57 | 0 | 0.0 | 0.0 | 0.00 | 0.00 | 0.00 | 63 | 1018.3 |
| 20260906074503 | 57 | 0 | 0.0 | 0.0 | 0.00 | 0.00 | 0.00 | 62 | 1018.2 |
| 20260906074002 | 57 | 0 | 0.0 | 0.0 | 0.00 | 0.00 | 0.00 | 62 | 1018.3 |
| 20260906073503 | 58 | 0 | 0.0 | 0.0 | 0.00 | 0.00 | 0.00 | 62 | 1018.3 |
| 20260906072503 | 58 | 0 | 0.0 | 0.0 | 0.00 | 0.00 | 0.00 | 61 | 1018.3 |
| 20260906071503 | 58 | 0 | 0.0 | 0.0 | 0.00 | 0.00 | 0.00 | 61 | 1018.4 |
| 20260906071003 | 58 | 0 | 0.0 | 0.0 | 0.00 | 0.00 | 0.00 | 61 | 1018.4 |
| 20260906070005 | 59 | 74 | 0.0 | 1.0 | 0.00 | 0.00 | 0.00 | 60 | 1018.5 |
| 20260906065003 | 59 | 0 | 0.0 | 0.0 | 0.00 | 0.00 | 0.00 | 60 | 1018.4 |
| 20260906064503 | 59 | 0 | 0.0 | 0.0 | 0.00 | 0.00 | 0.00 | 59 | 1018.4 |
| 20260906063003 | 60 | 79 | 0.0 | 1.0 | 0.00 | 0.00 | 0.00 | 59 | 1018.4 |
| 20260906062503 | 60 | 0 | 0.0 | 0.0 | 0.00 | 0.00 | 0.00 | 59 | 1018.4 |
| 20260906061503 | 60 | 74 | 1.0 | 2.0 | 0.00 | 0.00 | 0.00 | 59 | 1018.4 |
| 20260906061003 | 60 | 72 | 0.0 | 3.0 | 0.00 | 0.00 | 0.00 | 58 | 1018.5 |
| 20260906060503 | 60 | 77 | 0.0 | 1.0 | 0.00 | 0.00 | 0.00 | 58 | 1018.3 |
| 20260906060003 | 60 | 0 | 0.0 | 0.0 | 0.00 | 0.00 | 0.00 | 58 | 1018.3 |
| 20260906055503 | 61 | 0 | 0.0 | 0.0 | 0.00 | 0.00 | 0.00 | 57 | 1018.4 |
| 20260906055003 | 61 | 0 | 0.0 | 0.0 | 0.00 | 0.00 | 0.00 | 57 | 1018.4 |
| 20260906054502 | 61 | 0 | 0.0 | 0.0 | 0.00 | 0.00 | 0.00 | 56 | 1018.4 |
| 20260906054003 | 61 | 0 | 0.0 | 0.0 | 0.00 | 0.00 | 0.00 | 56 | 1018.4 |
| 20260906053503 | 61 | 77 | 1.0 | 2.0 | 0.00 | 0.00 | 0.00 | 56 | 1018.5 |
| 20260906053003 | 61 | 76 | 1.0 | 2.0 | 0.00 | 0.00 | 0.00 | 56 | 1018.6 |
| 20260906052503 | 62 | 72 | 0.0 | 2.0 | 0.00 | 0.00 | 0.00 | 56 | 1018.6 |
| 20260906051503 | 62 | 0 | 0.0 | 0.0 | 0.00 | 0.00 | 0.00 | 55 | 1018.6 |
| 20260906051003 | 62 | 0 | 0.0 | 0.0 | 0.00 | 0.00 | 0.00 | 54 | 1018.7 |
| 20260906050502 | 63 | 0 | 0.0 | 0.0 | 0.00 | 0.00 | 0.00 | 54 | 1018.7 |
| 20260906050003 | 63 | 0 | 0.0 | 0.0 | 0.00 | 0.00 | 0.00 | 54 | 1018.7 |
| 20260906045503 | 63 | 74 | 0.0 | 1.0 | 0.00 | 0.00 | 0.00 | 53 | 1018.6 |
| 20260906045002 | 63 | 0 | 0.0 | 0.0 | 0.00 | 0.00 | 0.00 | 53 | 1018.7 |
| 20260906044503 | 64 | 0 | 0.0 | 0.0 | 0.00 | 0.00 | 0.00 | 53 | 1018.7 |
| 20260906044003 | 64 | 0 | 1.0 | 0.0 | 0.00 | 0.00 | 0.00 | 52 | 1018.7 |
| 20260906043503 | 64 | 72 | 1.0 | 2.0 | 0.00 | 0.00 | 0.00 | 53 | 1018.7 |
| 20260906043004 | 64 | 77 | 2.0 | 2.0 | 0.00 | 0.00 | 0.00 | 52 | 1018.7 |
| 20260906042503 | 64 | 78 | 1.0 | 3.0 | 0.00 | 0.00 | 0.00 | 52 | 1018.7 |
| 20260906042002 | 65 | 79 | 0.0 | 2.0 | 0.00 | 0.00 | 0.00 | 51 | 1018.7 |
| 20260906041503 | 65 | 114 | 0.0 | 2.0 | 0.00 | 0.00 | 0.00 | 51 | 1018.7 |
| 20260906040003 | 66 | 0 | 0.0 | 0.0 | 0.00 | 0.00 | 0.00 | 50 | 1018.4 |
| 20260906035503 | 66 | 0 | 0.0 | 0.0 | 0.00 | 0.00 | 0.00 | 50 | 1018.4 |
| 20260906034503 | 66 | 0 | 0.0 | 0.0 | 0.00 | 0.00 | 0.00 | 50 | 1018.4 |
| 20260906034004 | 67 | 0 | 0.0 | 0.0 | 0.00 | 0.00 | 0.00 | 49 | 1018.4 |
| 20260906033503 | 67 | 0 | 0.0 | 0.0 | 0.00 | 0.00 | 0.00 | 49 | 1018.3 |
| 20260906033003 | 67 | 145 | 1.0 | 1.0 | 0.00 | 0.00 | 0.00 | 48 | 1018.3 |
| 20260906032502 | 67 | 143 | 1.0 | 2.0 | 0.00 | 0.00 | 0.00 | 48 | 1018.1 |
| 20260906032003 | 67 | 148 | 0.0 | 3.0 | 0.00 | 0.00 | 0.00 | 48 | 1018.0 |
| 20260906031503 | 68 | 140 | 0.0 | 1.0 | 0.00 | 0.00 | 0.00 | 47 | 1018.0 |
| 20260906031003 | 68 | 144 | 1.0 | 2.0 | 0.00 | 0.00 | 0.00 | 47 | 1017.9 |
| 20260906030003 | 68 | 193 | 1.0 | 4.0 | 0.00 | 0.00 | 0.00 | 46 | 1017.7 |
| 20260906025503 | 69 | 197 | 2.0 | 1.0 | 0.00 | 0.00 | 0.00 | 46 | 1017.6 |
| 20260906025003 | 69 | 196 | 2.0 | 3.0 | 0.00 | 0.00 | 0.00 | 45 | 1017.6 |
| 20260906024503 | 69 | 198 | 2.0 | 4.0 | 0.00 | 0.00 | 0.00 | 45 | 1017.6 |
| 20260906024003 | 69 | 200 | 2.0 | 3.0 | 0.00 | 0.00 | 0.00 | 45 | 1017.5 |
| 20260906023502 | 70 | 200 | 2.0 | 3.0 | 0.00 | 0.00 | 0.00 | 44 | 1017.5 |
| 20260906022503 | 70 | 202 | 3.0 | 4.0 | 0.00 | 0.00 | 0.00 | 43 | 1017.4 |
| 20260906021503 | 71 | 199 | 4.0 | 5.0 | 0.00 | 0.00 | 0.00 | 43 | 1017.3 |
| 20260906020503 | 71 | 221 | 5.0 | 7.0 | 0.00 | 0.00 | 0.00 | 43 | 1017.4 |
| 20260906020003 | 71 | 229 | 4.0 | 8.0 | 0.00 | 0.00 | 0.00 | 42 | 1017.4 |
| 20260906014003 | 73 | 239 | 3.0 | 8.0 | 0.00 | 0.00 | 0.00 | 41 | 1017.4 |
| 20260906013503 | 73 | 231 | 4.0 | 7.0 | 0.00 | 0.00 | 0.00 | 40 | 1017.5 |
| 20260906013003 | 74 | 235 | 6.0 | 9.0 | 0.00 | 0.00 | 0.00 | 40 | 1017.5 |
| 20260906012503 | 74 | 242 | 7.0 | 11.0 | 0.00 | 0.00 | 0.00 | 40 | 1017.5 |
| 20260906012003 | 74 | 229 | 9.0 | 10.0 | 0.00 | 0.00 | 0.00 | 40 | 1017.5 |
| 20260906011503 | 74 | 233 | 9.0 | 15.0 | 0.00 | 0.00 | 0.00 | 39 | 1017.4 |
| 20260906011003 | 74 | 236 | 8.0 | 15.0 | 0.00 | 0.00 | 0.00 | 39 | 1017.5 |
| 20260906010503 | 74 | 241 | 9.0 | 13.0 | 0.00 | 0.00 | 0.00 | 39 | 1017.4 |
| 20260906010004 | 74 | 234 | 10.0 | 15.0 | 0.00 | 0.00 | 0.00 | 38 | 1017.3 |
| 20260906005503 | 74 | 239 | 10.0 | 15.0 | 0.00 | 0.00 | 0.00 | 38 | 1017.4 |
| 20260906005003 | 75 | 233 | 10.0 | 15.0 | 0.00 | 0.00 | 0.00 | 37 | 1017.3 |
| 20260906004503 | 75 | 232 | 10.0 | 18.0 | 0.00 | 0.00 | 0.00 | 36 | 1017.2 |
| 20260906002004 | 76 | 251 | 6.0 | 10.0 | 0.00 | 0.00 | 0.00 | 33 | 1017.3 |
| 20260906001503 | 76 | 241 | 7.0 | 12.0 | 0.00 | 0.00 | 0.00 | 32 | 1017.2 |
| 20260906000503 | 76 | 239 | 9.0 | 13.0 | 0.00 | 0.00 | 0.00 | 33 | 1017.2 |
| 20260905235503 | 76 | 241 | 8.0 | 16.0 | 0.00 | 0.00 | 0.00 | 34 | 1017.0 |
| 20260905234503 | 77 | 241 | 8.0 | 15.0 | 0.00 | 0.00 | 0.00 | 34 | 1016.9 |
| 20260905234003 | 77 | 245 | 8.0 | 15.0 | 0.00 | 0.00 | 0.00 | 33 | 1016.9 |
| 20260905233503 | 77 | 239 | 9.0 | 13.0 | 0.00 | 0.00 | 0.00 | 33 | 1016.9 |
| 20260905233003 | 77 | 248 | 10.0 | 15.0 | 0.00 | 0.00 | 0.00 | 33 | 1017.0 |
| 20260905232503 | 77 | 243 | 11.0 | 16.0 | 0.00 | 0.00 | 0.00 | 33 | 1016.9 |
| 20260905232004 | 77 | 244 | 10.0 | 17.0 | 0.00 | 0.00 | 0.00 | 33 | 1016.8 |
| 20260905231503 | 77 | 241 | 10.0 | 14.0 | 0.00 | 0.00 | 0.00 | 33 | 1016.8 |
| 20260905231003 | 77 | 237 | 11.0 | 16.0 | 0.00 | 0.00 | 0.00 | 32 | 1016.9 |
| 20260905230503 | 77 | 236 | 12.0 | 15.0 | 0.00 | 0.00 | 0.00 | 32 | 1016.8 |
| 20260905230004 | 77 | 241 | 13.0 | 18.0 | 0.00 | 0.00 | 0.00 | 33 | 1016.9 |
| 20260905225503 | 77 | 241 | 12.0 | 22.0 | 0.00 | 0.00 | 0.00 | 33 | 1016.8 |
| 20260905225003 | 77 | 243 | 12.0 | 18.0 | 0.00 | 0.00 | 0.00 | 32 | 1016.9 |
| 20260905224503 | 77 | 242 | 12.0 | 19.0 | 0.00 | 0.00 | 0.00 | 33 | 1016.8 |
| 20260905224003 | 78 | 236 | 11.0 | 20.0 | 0.00 | 0.00 | 0.00 | 32 | 1016.9 |
| 20260905223503 | 78 | 245 | 11.0 | 20.0 | 0.00 | 0.00 | 0.00 | 32 | 1017.0 |
| 20260905223003 | 78 | 244 | 11.0 | 17.0 | 0.00 | 0.00 | 0.00 | 32 | 1016.9 |
| 20260905222003 | 78 | 236 | 10.0 | 19.0 | 0.00 | 0.00 | 0.00 | 31 | 1016.9 |
| 20260905221003 | 78 | 241 | 12.0 | 19.0 | 0.00 | 0.00 | 0.00 | 32 | 1016.8 |
| 20260905220003 | 79 | 242 | 10.0 | 20.0 | 0.00 | 0.00 | 0.00 | 31 | 1016.8 |
| 20260905215504 | 79 | 238 | 10.0 | 20.0 | 0.00 | 0.00 | 0.00 | 30 | 1016.8 |
| 20260905214503 | 79 | 243 | 9.0 | 15.0 | 0.00 | 0.00 | 0.00 | 30 | 1016.9 |
| 20260905214004 | 78 | 242 | 8.0 | 13.0 | 0.00 | 0.00 | 0.00 | 32 | 1016.9 |
| 20260905213503 | 77 | 251 | 9.0 | 16.0 | 0.00 | 0.00 | 0.00 | 32 | 1017.1 |
| 20260905212502 | 78 | 242 | 11.0 | 15.0 | 0.00 | 0.00 | 0.00 | 32 | 1017.2 |
| 20260905211502 | 78 | 243 | 9.0 | 18.0 | 0.00 | 0.00 | 0.00 | 32 | 1017.3 |